Marrakech, Morocco

12:08 AM WET on March 25, 2017 (GMT +0000)
Marrakech

Weather History for 60230 - September, 2012

Change the Weather History Date:

Saturday, September 29, 2012

  Actual Average Record
Temperature  
Mean Temperature 68 °F -  
Max Temperature 77 °F 81 °F - ()
Min Temperature 59 °F 58 °F - ()
Cooling Degree Days 3    
Growing Degree Days 18 (Base 50)    
Moisture  
Dew Point 57 °F    
Average Humidity 70    
Maximum Humidity 100    
Minimum Humidity 31    
Precipitation  
Precipitation 0.00 in 0.03 in - ()
Sea Level Pressure  
Sea Level Pressure 30.12 in    
Wind  
Wind Speed 6 mph ()    
Max Wind Speed 14 mph    
Max Gust Speed -    
Visibility 6.2 miles    
Events      
T = Trace of Precipitation, MM = Missing Value Source: Averaged Metar Reports

Daily Weather History Graph

Daily Weather History Graph

Search for Another Location

Airport or City:

Trip Planner

Search our weather history database for the weather conditions in past years. The results will help you decide how hot, cold, wet, or windy it might be!

Date:

Astronomy

Sep. 29, 2012 Rise Set
Actual Time 7:24 AM WEST 7:19 PM WEST
Civil Twilight 7:00 AM WEST 7:43 PM WEST
Nautical Twilight 6:32 AM WEST 8:11 PM WEST
Astronomical Twilight 6:03 AM WEST 8:40 PM WEST
Moon 6:47 PM WEST (9/29) 6:42 AM WEST (9/29)
Length of Visible Light 12h 42m
Length of Day
11h 54m
Full, 100% of the Moon is Illuminated
Sep 29
Full
Sep 30
Full
Oct 8
Last Quarter
Oct 15
New
Oct 22
First Quarter

Hourly Weather History & Observations

Time (WEST) Temp. Heat Index Dew Point Humidity Pressure Visibility Wind Dir Wind Speed Gust Speed Precip Events Conditions
12:00 AM 62.6 °F - 59.0 °F 88% 30.12 in 6.2 mi SW 9.2 mph - N/A   Scattered Clouds
12:30 AM 62.6 °F - 57.2 °F 82% 30.12 in 6.2 mi SW 8.1 mph - N/A   Scattered Clouds
1:00 AM 62 °F - 56 °F 77% 30.10 in 6 mi SSW 6.9 mph - -   Partly Cloudy
1:00 AM 62.6 °F - 57.2 °F 82% 30.12 in 6.2 mi SSW 6.9 mph - N/A   Scattered Clouds
1:30 AM 60.8 °F - 57.2 °F 88% 30.12 in 6.2 mi SW 6.9 mph - N/A   Scattered Clouds
2:00 AM 62.6 °F - 55.4 °F 77% 30.12 in 6.2 mi SSW 8.1 mph - N/A   Scattered Clouds
2:30 AM 62.6 °F - 55.4 °F 77% 30.12 in 6.2 mi SW 8.1 mph - N/A   Scattered Clouds
3:00 AM 62.6 °F - 55.4 °F 77% 30.09 in 6.2 mi WSW 9.2 mph - N/A   Scattered Clouds
3:30 AM 62.6 °F - 55.4 °F 77% 30.09 in 6.2 mi WSW 9.2 mph - N/A   Scattered Clouds
4:00 AM 61 °F - 57 °F 82% 30.08 in 6 mi WSW 8.1 mph - -   Partly Cloudy
4:00 AM 60.8 °F - 57.2 °F 88% 30.09 in 6.2 mi WSW 8.1 mph - N/A   Scattered Clouds
4:30 AM 59.0 °F - 59.0 °F 100% 30.09 in 6.2 mi WNW 13.8 mph - N/A   Scattered Clouds
5:00 AM 59.0 °F - 59.0 °F 100% 30.09 in 6.2 mi West 8.1 mph - N/A   Scattered Clouds
5:30 AM 59.0 °F - 59.0 °F 100% 30.09 in 6.2 mi WSW 5.8 mph - N/A   Scattered Clouds
6:00 AM 59.0 °F - 57.2 °F 94% 30.09 in 6.2 mi Calm Calm - N/A   Unknown
6:30 AM 60.8 °F - 57.2 °F 88% 30.12 in 6.2 mi SSW 5.8 mph - N/A   Scattered Clouds
7:00 AM 61 °F - 55 °F 75% 30.09 in 6 mi SSW 5.8 mph - -   Partly Cloudy
7:00 AM 60.8 °F - 55.4 °F 82% 30.12 in 6.2 mi SSW 5.8 mph - N/A   Scattered Clouds
7:30 AM 60.8 °F - 55.4 °F 82% 30.12 in 6.2 mi SSW 5.8 mph - N/A   Scattered Clouds
8:00 AM 62.6 °F - 55.4 °F 77% 30.12 in 6.2 mi SSW 3.5 mph - N/A   Scattered Clouds
8:30 AM 60.8 °F - 55.4 °F 82% 30.12 in 6.2 mi SSW 3.5 mph - N/A   Scattered Clouds
9:00 AM 64.4 °F - 55.4 °F 73% 30.15 in 6.2 mi SSW 4.6 mph - N/A   Scattered Clouds
9:30 AM 64.4 °F - 57.2 °F 77% 30.15 in 6.2 mi WSW 4.6 mph - N/A   Scattered Clouds
10:00 AM 67 °F - 58 °F 66% 30.12 in 6 mi West 6.9 mph - -   Partly Cloudy
10:00 AM 66.2 °F - 59.0 °F 78% 30.15 in 6.2 mi West 6.9 mph - N/A   Scattered Clouds
10:30 AM 69.8 °F - 59.0 °F 68% 30.18 in 6.2 mi West 8.1 mph - N/A   Mostly Cloudy
11:00 AM 69.8 °F - 59.0 °F 68% 30.18 in 6.2 mi WNW 6.9 mph - N/A   Mostly Cloudy
11:30 AM 71.6 °F - 59.0 °F 64% 30.15 in 6.2 mi WSW 3.5 mph - N/A   Mostly Cloudy
12:00 PM 71.6 °F - 57.2 °F 60% 30.15 in 6.2 mi West 3.5 mph - N/A   Mostly Cloudy
12:30 PM 73.4 °F - 57.2 °F 57% 30.15 in 6.2 mi WSW 5.8 mph - N/A   Mostly Cloudy
1:00 PM 74 °F - 58 °F 47% 30.09 in 6 mi West 8.1 mph - -   Mostly Cloudy
1:00 PM 91.4 °F 89.9 °F 57.2 °F 31% 30.15 in 6.2 mi WNW 8.1 mph - N/A   Mostly Cloudy
1:30 PM 75.2 °F - 55.4 °F 50% 30.15 in 6.2 mi West 8.1 mph - N/A   Mostly Cloudy
2:00 PM 75.2 °F - 55.4 °F 50% 30.12 in 6.2 mi West 9.2 mph - N/A   Mostly Cloudy
2:30 PM 77.0 °F - 57.2 °F 50% 30.12 in 6.2 mi West 8.1 mph - N/A   Mostly Cloudy
3:00 PM 75.2 °F - 57.2 °F 53% 30.12 in 6.2 mi WNW 9.2 mph - N/A   Mostly Cloudy
3:30 PM 77.0 °F - 57.2 °F 50% 30.12 in 6.2 mi WNW 8.1 mph - N/A   Mostly Cloudy
4:00 PM 76 °F - 55 °F 38% 30.05 in 6 mi WNW 6.9 mph - -   Mostly Cloudy
4:00 PM 75.2 °F - 55.4 °F 50% 30.12 in 6.2 mi Variable 6.9 mph - N/A   Mostly Cloudy
4:30 PM 77.0 °F - 57.2 °F 50% 30.09 in 6.2 mi WNW 6.9 mph - N/A   Mostly Cloudy
5:00 PM 77.0 °F - 55.4 °F 47% 30.09 in 6.2 mi WNW 8.1 mph - N/A   Mostly Cloudy
5:30 PM 75.2 °F - 55.4 °F 50% 30.09 in 6.2 mi West 9.2 mph - N/A   Mostly Cloudy
6:00 PM 73.4 °F - 59.0 °F 61% 30.09 in 6.2 mi WNW 11.5 mph - N/A   Mostly Cloudy
6:30 PM 73.4 °F - 59.0 °F 61% 30.12 in 6.2 mi WNW 9.2 mph - N/A   Mostly Cloudy
7:00 PM 73 °F - 59 °F 53% 30.06 in 6 mi NW 9.2 mph - -   Mostly Cloudy
7:00 PM 73.4 °F - 59.0 °F 61% 30.12 in 6.2 mi NW 9.2 mph - N/A   Mostly Cloudy
7:30 PM 69.8 °F - 59.0 °F 68% 30.12 in 6.2 mi NNW 8.1 mph - N/A   Partly Cloudy
8:00 PM 68.0 °F - 60.8 °F 78% 30.12 in 6.2 mi North 8.1 mph - N/A   Partly Cloudy
8:30 PM 68.0 °F - 59.0 °F 73% 30.12 in 6.2 mi North 4.6 mph - N/A   Partly Cloudy
9:00 PM 68.0 °F - 59.0 °F 73% 30.15 in 6.2 mi North 4.6 mph - N/A   Partly Cloudy
9:30 PM 68.0 °F - 59.0 °F 73% 30.15 in 6.2 mi Calm Calm - N/A   Partly Cloudy
10:00 PM 67 °F - 60 °F 71% 30.12 in 6 mi Calm Calm - -   Mostly Cloudy
10:00 PM 66.2 °F - 59.0 °F 78% 30.15 in 6.2 mi Calm Calm - N/A   Partly Cloudy
10:30 PM 66.2 °F - 59.0 °F 78% 30.15 in 6.2 mi ENE 3.5 mph - N/A   Partly Cloudy
11:00 PM 66.2 °F - 59.0 °F 78% 30.15 in 6.2 mi NE 3.5 mph - N/A   Scattered Clouds
11:30 PM 66.2 °F - 60.8 °F 83% 30.15 in 6.2 mi Calm Calm - N/A   Scattered Clouds